Regional Weather Roundup
Issued by NWS Green Bay, WI

Home | Current Version | Previous Version | Text Only | Print | Product List | Glossary On
Versions: 1 2 3 4 5 6 7 8 9 10 11 12 13 14 15 16 17 18 19 20 21 22 23 24 25 26 27 28 29 30 31 32 33 34 35 36 37 38 39 40 41 42 43 44 45 46 47 48 49 50
069
ASUS43 KGRB 040800
RWRGRB

NORTH-CENTRAL AND NORTHEAST WISCONSIN REGIONAL WEATHER ROUNDUP
NATIONAL WEATHER SERVICE GREEN BAY WI
200 AM CST SUN DEC 04 2016

WIZ005-009-010>012-018-019-040900-
NORTH CENTRAL WISCONSIN

CITY           SKY/WX    TMP DP  RH WIND       PRES   REMARKS
IRONWOOD       CLOUDY    27  23  85 CALM      30.14F
MANITOWISH WTR NOT AVBL
ARBOR VITAE    NOT AVBL
EAGLE RIVER    NOT AVBL
LAND O LAKES   NOT AVBL
RHINELANDER    CLOUDY    28  20  71 SW8       30.15S
PHILLIPS       CLOUDY    26  22  84 SE5       30.13F
ANTIGO         NOT AVBL
TOMAHAWK       NOT AVBL
MERRILL        CLOUDY    27  23  82 S3        30.17F
$$

WIZ013-073-040900-
NORTHEAST WISCONSIN

CITY           SKY/WX    TMP DP  RH WIND       PRES   REMARKS
IRON MOUNTAIN  CLOUDY    29  24  82 SE5       30.16S
MARINETTE      CLOUDY    31  23  72 CALM      30.23S
$$

WIZ017-030-035>037-045-040900-
CENTRAL WISCONSIN

CITY           SKY/WX    TMP DP  RH WIND       PRES   REMARKS
MEDFORD        NOT AVBL
WAUSAU         CLOUDY    28  21  75 S8        30.17S
MOSINEE        NOT AVBL
MARSHFIELD     CLOUDY    28  22  78 SE7       30.15F
WISC RAPIDS    CLOUDY    29  23  78 SE6       30.19F
STEVENS POINT  NOT AVBL
WAUPACA        CLOUDY    31  24  74 CALM      30.21F
SHAWANO        CLOUDY    32  24  74 CALM      30.22S
CLINTONVILLE   CLOUDY    30  23  74 S3        30.22S
WAUTOMA        CLOUDY    29  24  82 CALM      30.21F
$$

WIZ038-039-048-051-040900-
FOX VALLEY

CITY           SKY/WX    TMP DP  RH WIND       PRES   REMARKS
NWS GREEN BAY  CLOUDY    32  26  78 S7        30.24R
APPLETON       NOT AVBL
OSHKOSH        CLOUDY    29  23  78 SE3       30.21F
FOND DU LAC    CLOUDY    30  23  75 S6        30.22F
$$

WIZ022-050-052-040900-
EAST CENTRAL WISCONSIN

CITY           SKY/WX    TMP DP  RH WIND       PRES   REMARKS
EPHRAIM        NOT AVBL
WASHINGTON ISL NOT AVBL
STURGEON BAY   CLOUDY    31  24  75 SW3       30.23F
MANITOWOC      NOT AVBL
SHEBOYGAN      MOCLDY    29  24  82 CALM      30.23F
$$

LMZ563-521-522-541>543-040900-
LAKESHORE

STATION/POSITION TIME  TEMP    WIND        PRES    VSBY  WAVE
                       AIR SEA DIR/SP/G                  HT/PER
                 (UTC) (F)     (DEG/KT/KT) (MB)    (MI)  (FT/S)
SHEBOYGAN LKSHOR 0700   31     250/  5/  6 1024.8F
KEWAUNEE LKSHORE 0730   31     250/  4/  6 1023.2F
ALGOMA MARINA    0751          250/  5/  6   N/A
NORTHPORT PIER   0740   31      CALM  /  6 1023.4F
SISTER BAY LKSHO 0738   32     200/ 10/ 12   N/A
CHAMBERS ISLAND  0740   33     150/  3/  5 1023.0S
MENOMINEE LKSHOR 0730   31     210/  4/  6 1022.6S
$$




USA.gov is the U.S. government's official web portal to all federal, state and local government web resources and services.